Location: Pasadena, ca
(34.1243°N, 118.1037°W)
Time: 15:40:47
(UTC-07:00)

Tiangong 2 - Pass Details

Date: 11 October 2017
Orbit: 388 x 391 km, 42.8° (Epoch: 23 October)

Event Time Altitude Azimuth Distance (km) Brightness Sun altitude
Exits shadow 04:43:25 15° 51° (NE) 1,163 4.1 -27.9°
Drops below altitude 10° 04:44:04 10° 54° (NE) 1,420 4.7 -27.7°
Sets 04:46:11 0° 59° (ENE) 2,278 6.1 -27.3°
